SCP
-0 -0 -0 -0 -0 -0 -0 -0 -0 -0 -0 -0 0 0 0 -0 -0 -0 0 0 0 -0 -0 -0 0 0 0 0 0 0 0 0 0 0 0 0 0 0 0 0 0 0 0 0 0 0 0
-0 -0 -0 -0 -0 -0 -0 -0 -0 -0 0 0 0 -0 -0 -0 -0 -0 0 0 0 0 0 0 0 0 0 0 0 0 -0 0 0 0 -0 0 0 0 0 0 0 0 0 0 0 0 0
-0 -0 -0 -0 -0 -0 -0 -0 0 0 0 0 0 0 0 -0 -0 -0 0 0 0 0 0 0 0 0 0 0 0 0 0 0 0 0 0 0 0 0 0 0 0 0 0 0 0 0 0
-0 -0 -0 -0 -0 -0 -0 -0 0 0 0 0 0 0 0 0 0 0 0 0 0 0 0 0 0 0 0 0 0 0 0 0 0 0 0 0 0 0 0 0 0 0 0 0 0 0 -0
-0 -0 -0 -0 -0 -0 -0 0 0 0 0 0 0 0 0 0 0 0 0 0 0 0 0 0 0 0 -0 0 0 0 0 0 0 0 0 0 0 0 0 0 0 0 0 0 0 0 0
-0 -0 -0 -0 -0 -0 -0 0 0 0 0 0 0 0 0 0 0 0 0 0 0 0 0 0 0 0 0 0 0 0 0 0 0 0 0 0 0 0 0 0 0 0 0 -0 -0 0 0
-0 -0 -0 -0 -0 -0 -0 0 0 0 0 0 0 0 0 0 -0 -0 -0 0 0 0 0 0 -0 0 0 0 0 0 0 0 0 0 0 0 0 0 0 0 0 -0 -0 -0 -0 0 0
-0 -0 -0 -0 -0 -0 -0 0 0 0 0 0 0 0 0 0 -0 0 0 0 0 0 0 -0 -0 -0 0 0 0 0 0 0 0 0 0 0 0 0 0 0 0 0 0 0 0 -0 0
-0 -0 -0 -0 -0 -0 -0 -0 -0 0 0 0 0 0 -0 -0 -0 0 0 0 0 0 0 -0 -0 0 0 0 0 0 0 0 0 0 0 0 -0 0 0 0 0 0 0 0 0 0 0
0 0 0 -0 -0 -0 0 0 0 0 0 0 0 0 -0 -0 0 0 0 0 0 0 0 -0 0 0 0 0 0 0 0 0 0 0 0 0 -0 -0 -0 -0 0 -0 0 0 0 0 0
0 0 0 0 0 0 0 0 0 0 0 0 0 0 -0 0 0 0 0 0 0 0 0 0 0 0 0 0 0 0 0 0 0 0 0 0 0 0 0 -0 -0 -0 0 0 0 0 0
0 0 0 0 0 0 0 0 0 0 0 0 0 0 -0 0 0 0 0 0 0 0 0 0 0 0 0 0 0 -0 0 0 0 0 0 0 0 0 0 0 0 0 0 0 0 0 0
0 0 0 0 0 0 0 0 0 0 0 0 0 0 -0 0 0 0 -0 0 0 0 0 0 0 0 0 0 0 0 0 -0 0 0 0 0 -0 0 0 0 0 0 0 0 0 0 0
0 0 0 0 0 0 0 0 0 0 0 0 0 0 0 0 0 0 0 0 0 0 0 0 0 0 0 0 0 0 0 0 0 0 0 0 -0 0 0 0 0 0 0 0 0 0 0
0 0 0 0 0 0 0 0 0 0 0 0 0 0 0 0 0 0 0 0 0 0 0 0 0 0 0 0 0 0 0 0 0 0 0 0 0 -0 -0 -0 0 0 0 0 0 0 0
0 0 0 0 0 0 0 0 0 0 0 0 0 0 0 0 0 0 0 0 0 0 0 0 0 0 0 0 0 0 0 0 0 0 0 0 -0 0 0 0 0 0 0 0 0 0 0
0 0 0 0 0 0 0 0 0 0 0 -0 0 0 0 0 0 0 0 0 0 0 0 0 0 0 0 0 0 0 0 0 0 0 0 0 0 0 0 0 0 -0 0 0 0 0 0
0 0 0 0 0 0 0 0 0 0 -0 0 0 0 0 0 0 0 0 0 0 0 0 0 0 0 0 0 0 0 0 0 0 0 0 0 0 0 0 -0 -0 -0 0 0 0 0 0
0 0 0 0 0 0 0 0 0 0 0 0 0 0 -0 0 0 0 0 0 0 0 0 0 0 0 0 0 0 0 0 0 0 0 0 0 0 0 -0 0 0 0 0 0 0 0 0
0 0 0 0 0 0 0 0 0 0 0 0 0 0 0 0 0 0 0 0 0 0 0 0 0 0 0 0 0 0 0 0 0 0 0 0 0 0 0 0 0 -0 -0 0 0 0 0
0 0 0 0 0 0 0 0 0 0 0 0 0 0 0 0 0 0 0 0 0 0 0 0 0 0 0 0 0 0 0 0 0 0 0 0 0 0 0 -0 -0 -0 -0 0 0 -0 0
0 0 0 0 0 0 0 0 0 0 0 0 0 0 0 0 0 0 0 0 0 0 0 0 0 0 0 0 0 0 0 0 0 0 0 0 0 -0 -0 0 0 0 0 0 0 0 0
0 0 0 0 0 0 0 0 0 0 0 0 0 0 0 0 0 0 0 0 0 0 0 0 0 0 0 0 0 0 0 0 0 0 0 0 0 -0 0 0 -0 0 0 0 0 0 0
0 0 0 0 0 0 0 0 0 0 0 0 0 0 0 0 0 0 0 0 0 0 0 0 0 0 0 0 0 0 0 0 0 0 0 0 0 0 0 -0 0 0 0 0 -0 0 0
0 0 0 0 0 0 0 0 0 0 0 0 0 0 0 0 0 0 0 0 0 0 0 0 0 0 0 0 0 0 0 0 0 0 0 0 0 0 0 0 0 0 0 -0 -0 -0 0
0 0 0 0 0 0 0 0 0 0 0 0 0 0 0 0 0 0 0 0 0 0 0 0 0 0 0 0 0 0 0 0 0 0 0 0 0 0 0 0 0 0 -0 0 0 0 0
0 0 0 0 0 0 0 0 0 0 0 0 0 0 0 0 0 0 0 0 0 0 0 0 0 0 0 0 0 0 0 0 0 0 0 0 0 0 0 0 0 -0 -0 0 -0 0 -0
0 0 0 0 0 0 0 0 0 0 0 0 0 0 0 0 0 0 0 0 0 0 0 0 0 0 0 0 0 0 0 0 0 0 0 -0 -0 0 0 0 0 -0 0 -0 0 -0 -0
0 0 0 0 0 0 0 0 0 0 0 0 0 0 0 0 0 0 0 0 0 0 0 0 0 0 0 0 0 0 0 0 -0 0 0 0 0 0 0 0 -0 -0 0 0 0 -0 -0
Wind_Speed_500mb
52 54 57 59 61 63 65 68 70 71 68 66 60 50 41 31 26 26 27 30 36 36 33 23 30 24 17 12 13 6 20 14 19 25 20 29 31 38 15 21 37 15 18 39 39 34 35
51 53 57 59 61 65 68 70 74 75 73 68 62 54 44 36 26 25 27 30 33 34 30 23 27 26 13 10 10 15 21 23 20 22 27 25 29 34 25 26 17 36 38 38 47 46 46
52 52 56 58 61 65 68 71 76 79 80 73 65 56 46 36 24 25 28 30 29 29 26 32 24 21 16 20 3 12 19 24 18 15 18 21 32 34 39 17 30 51 26 30 24 27 23
52 53 56 59 63 66 68 72 75 79 83 79 70 58 45 35 21 24 30 31 26 28 20 27 17 12 15 14 12 18 24 23 31 20 24 21 19 29 28 36 36 26 17 17 18 27 50
52 54 57 61 64 67 69 70 74 79 84 86 75 58 41 31 25 28 31 32 29 28 15 21 9 13 17 15 25 16 9 27 32 35 21 22 22 23 32 14 14 14 23 31 39 38 35
53 54 58 62 66 70 72 72 73 79 85 88 80 54 37 28 28 30 27 32 36 9 5 21 1 15 17 16 26 22 29 38 48 33 35 25 34 10 14 10 16 22 22 27 31 31 27
55 56 59 63 66 70 73 73 75 80 84 88 84 53 35 27 22 25 25 27 33 13 17 24 38 36 46 28 22 26 35 37 38 15 14 36 16 21 35 33 37 31 33 39 36 31 28
55 57 60 62 65 68 70 74 74 79 83 84 81 52 33 26 18 21 24 21 30 30 28 33 37 39 29 27 30 37 42 19 15 18 19 21 27 35 40 41 45 40 41 46 41 35 35
53 56 59 62 66 68 70 71 76 77 80 81 81 51 30 31 14 22 23 31 30 27 10 29 24 16 14 18 28 48 13 19 17 17 24 28 33 40 42 29 35 36 33 33 40 36 33
55 58 61 64 67 70 73 74 75 78 79 79 83 53 28 23 13 23 28 33 37 22 4 12 16 8 15 33 32 11 27 30 9 21 22 23 23 38 41 42 37 42 29 34 35 20 26
57 60 63 66 68 71 74 76 79 81 84 82 79 54 23 23 19 26 38 34 31 9 7 12 34 14 63 38 47 21 31 27 19 35 25 33 29 31 36 42 40 52 36 35 40 20 26
56 59 62 65 68 70 73 75 79 79 80 85 72 49 22 20 17 40 42 30 19 4 6 8 31 34 43 47 33 51 41 56 46 26 30 32 39 33 32 33 33 33 26 28 23 14 26
58 61 64 66 68 72 75 77 79 81 82 84 79 36 9 28 22 37 42 29 4 3 27 23 40 39 37 27 33 36 36 33 11 16 19 35 21 20 18 17 16 24 8 7 8 15 23
58 62 65 66 68 70 74 77 79 81 83 85 76 17 7 21 33 29 27 9 5 28 25 30 32 38 22 41 20 26 32 31 5 9 9 13 18 18 22 24 23 29 14 7 12 7 6
55 58 62 66 68 69 71 76 82 85 83 85 54 13 9 22 25 26 25 6 5 19 27 29 27 24 24 39 28 25 24 14 13 13 6 12 12 44 52 42 20 4 11 13 9 15 8
54 56 60 63 66 67 67 73 79 84 82 79 49 25 3 21 39 26 5 9 21 29 20 21 19 23 38 40 33 32 15 12 22 8 13 9 28 27 37 28 27 25 10 7 7 7 11
55 58 61 61 62 63 63 71 76 81 80 77 37 20 14 44 29 19 2 13 28 50 22 10 20 27 28 25 34 26 16 27 16 8 6 14 14 21 17 11 13 4 3 6 7 9 6
53 58 60 61 63 64 63 68 74 78 79 67 30 11 34 33 14 16 10 21 45 30 37 13 12 13 18 30 28 18 22 26 36 15 5 3 8 13 29 53 39 35 17 24 9 9 7
56 56 56 60 63 67 65 66 69 68 70 72 48 14 36 37 8 9 15 23 49 26 12 16 12 16 21 20 25 24 34 33 15 8 6 10 8 13 13 7 8 7 5 12 22 17 33
56 59 60 60 61 62 63 63 65 61 56 56 17 7 20 28 47 22 23 25 34 37 31 32 27 26 21 31 26 32 29 26 27 9 30 26 9 15 22 34 31 45 45 40 32 13 13
61 63 66 65 61 61 62 57 56 58 46 34 13 13 22 10 22 34 27 27 38 31 29 39 10 23 32 35 22 21 45 44 50 11 9 4 12 21 33 45 45 50 55 48 35 24 15
62 64 63 59 58 58 56 53 53 50 50 22 16 16 19 42 36 27 24 23 35 43 29 18 26 34 32 16 21 48 49 43 42 11 7 9 9 22 37 40 37 30 26 21 10 11 18
62 61 61 59 57 55 52 50 46 36 38 16 29 28 19 19 22 18 14 34 44 36 12 46 45 25 15 28 48 63 74 37 3 15 13 5 7 12 16 26 43 4 6 31 29 22 15
58 57 56 55 53 50 47 43 41 29 31 29 26 25 11 11 13 20 43 45 40 40 39 47 53 21 30 55 66 63 46 16 15 10 11 7 8 10 17 29 6 3 3 26 27 36 26
50 51 53 50 48 44 44 40 35 35 30 35 30 16 8 8 24 41 45 42 52 52 34 48 44 50 67 41 19 18 13 10 10 5 14 10 8 9 10 16 19 5 18 28 30 38 12
48 47 47 49 47 40 40 39 37 32 31 36 34 23 19 10 11 49 35 47 24 23 20 38 53 53 38 6 9 9 6 12 11 13 9 26 17 5 8 12 9 11 35 63 11 12 17
46 46 46 46 49 44 37 39 39 36 30 37 36 34 20 16 40 27 27 22 29 30 18 38 30 31 26 7 6 6 7 12 8 12 14 15 7 9 14 10 1 25 37 54 10 15 67
46 45 45 44 44 43 36 36 35 38 36 36 41 38 33 18 60 48 19 44 64 47 10 32 22 12 10 9 5 7 6 7 7 12 7 9 11 7 9 8 8 41 16 12 22 56 59
43 45 44 43 43 43 40 36 37 35 38 36 42 38 30 41 54 79 90 52 51 48 40 12 23 33 6 5 6 5 6 7 10 7 2 5 1 7 4 8 12 47 25 51 58 57 51
Wind_Direction_500mb
43 41 36 31 27 23 19 15 11 9 6 1 356 350 346 339 336 338 342 345 346 346 345 341 346 337 335 319 265 290 335 11 22 3 345 318 314 322 335 337 326 325 309 321 316 311 305
41 36 32 28 24 21 17 13 10 8 5 1 358 352 346 339 328 331 336 342 346 347 350 327 331 331 320 281 324 329 342 4 344 327 317 314 321 317 313 309 304 305 307 304 299 300 300
36 32 28 25 21 18 14 11 9 7 4 1 358 352 347 340 328 331 334 336 339 340 342 344 324 321 297 264 276 317 324 303 297 297 287 297 310 328 326 317 302 318 312 303 302 287 269
31 28 24 21 17 14 10 9 7 7 5 2 357 353 351 348 343 339 337 334 332 331 328 353 5 340 282 335 227 283 272 290 309 285 299 280 295 293 293 290 291 291 285 280 267 258 260
28 23 20 16 13 10 9 7 6 5 4 2 358 354 357 358 353 347 345 342 334 327 310 331 330 333 281 300 252 285 279 284 292 289 277 283 255 271 285 282 294 270 261 259 266 252 242
23 19 15 13 11 8 6 5 4 3 3 1 359 356 359 3 3 6 2 353 344 345 5 321 350 296 278 269 294 272 289 296 281 274 296 287 264 220 251 232 250 258 274 285 290 303 309
20 16 12 10 8 7 6 4 2 0 359 360 359 356 356 1 14 13 15 7 0 358 321 266 267 249 284 304 310 290 280 277 292 304 277 265 260 228 244 245 255 276 287 282 284 286 296
18 15 12 9 6 5 4 3 0 359 358 357 358 355 354 354 355 345 349 6 359 321 302 294 267 257 269 289 277 280 287 259 297 270 266 269 250 245 254 253 241 242 250 265 272 280 279
13 10 8 6 4 2 1 0 359 357 357 356 357 353 353 350 355 352 341 348 333 328 296 294 228 236 243 268 269 277 267 262 254 298 298 272 281 292 295 300 297 286 267 253 266 272 264
8 6 4 2 0 359 359 358 356 355 355 355 355 350 348 8 17 350 0 339 321 309 284 250 192 171 297 299 273 346 343 308 253 277 276 273 287 290 297 292 293 282 289 301 306 308 271
5 3 0 359 358 358 356 355 355 355 353 351 353 350 349 350 346 2 341 329 333 15 22 35 39 19 346 328 308 336 357 352 330 317 296 277 277 277 283 286 284 281 287 285 287 262 285
359 358 357 356 356 356 354 354 354 355 353 350 354 347 6 355 342 357 332 320 307 355 286 52 13 354 334 323 343 3 11 3 337 311 295 283 297 287 274 299 299 310 326 318 314 273 258
355 355 355 355 355 354 353 353 352 353 351 348 348 342 353 7 347 352 330 344 7 265 355 358 351 346 312 359 353 9 359 350 11 336 351 309 276 273 53 20 333 49 18 282 246 220 254
352 352 353 353 354 354 353 352 352 353 351 348 350 359 359 5 4 349 350 356 278 351 346 356 344 320 356 347 356 353 344 330 349 10 311 341 329 2 341 317 300 284 161 271 295 245 294
348 349 349 349 350 353 354 353 351 353 353 348 357 13 28 356 350 334 356 331 359 354 358 348 334 335 331 329 334 348 341 308 355 51 349 303 258 321 304 294 279 223 194 163 251 235 254
343 344 345 346 348 351 355 354 351 350 355 352 352 357 27 346 340 338 23 259 353 350 351 349 323 322 328 325 333 349 329 298 325 119 113 254 289 278 288 307 280 239 158 271 204 241 242
339 340 342 343 346 348 352 355 352 349 354 354 353 336 3 346 356 327 31 353 337 321 345 300 314 316 314 320 318 311 291 301 273 322 288 281 219 282 303 231 233 287 347 183 241 230 271
333 334 336 339 343 343 345 350 354 350 352 3 6 333 15 356 15 357 359 343 319 316 314 316 330 306 301 308 306 314 290 279 268 242 248 248 289 282 282 274 270 251 229 208 236 235 232
326 330 337 340 340 340 343 345 349 354 351 350 338 286 335 24 25 332 326 330 310 311 341 341 318 311 308 301 305 299 292 310 318 122 186 180 233 296 299 306 32 38 321 254 267 260 242
322 324 327 328 332 332 335 336 341 350 351 344 336 314 349 339 354 338 328 312 312 347 335 336 320 308 313 303 290 293 323 317 323 195 215 166 231 223 260 278 297 289 279 271 264 250 268
317 319 319 320 322 326 330 330 335 343 358 352 347 3 342 312 325 311 317 305 330 329 336 337 320 323 305 307 314 326 319 315 318 16 146 167 252 247 253 261 269 270 272 286 273 288 250
315 317 319 321 322 323 326 330 333 345 352 357 7 346 322 294 304 325 317 339 326 331 330 318 317 306 299 316 335 322 311 309 302 115 137 239 275 297 290 274 268 276 35 352 307 278 278
314 316 317 320 321 322 322 323 325 338 344 354 325 319 325 297 319 327 315 324 313 328 319 316 310 315 341 335 318 304 295 297 166 154 187 232 284 304 279 323 307 153 42 350 292 270 269
314 317 319 321 322 323 324 325 320 324 325 318 315 312 279 280 311 297 309 305 323 328 311 328 319 345 331 327 323 308 302 139 137 170 158 200 296 281 290 305 282 130 184 318 285 287 288
318 321 323 325 324 326 328 327 323 312 310 307 310 297 258 269 292 295 330 316 313 309 314 305 330 326 330 324 317 315 319 335 324 113 152 232 282 289 297 311 273 67 342 322 326 304 251
319 321 323 326 326 327 327 330 331 315 305 306 304 283 246 271 246 313 305 308 305 313 303 317 314 324 346 300 320 311 296 320 324 330 160 344 310 296 295 302 294 349 328 324 311 265 2
315 318 320 323 323 328 327 326 329 325 306 300 294 299 255 253 282 296 298 287 298 315 294 304 343 326 350 343 312 329 289 339 327 326 332 328 358 285 311 279 111 352 339 332 3 313 318
316 318 320 321 319 321 324 325 332 330 314 301 291 290 265 248 287 293 270 291 292 292 261 304 336 358 346 9 333 345 316 294 313 316 341 316 332 336 325 288 323 359 342 8 294 302 307
317 318 322 323 322 315 314 311 313 316 319 294 289 290 281 248 270 295 292 288 282 283 259 262 276 312 322 2 1 311 283 277 330 299 286 337 265 298 260 279 348 345 298 319 325 313 319
Wind_Speed_850mb
52 54 57 59 61 63 65 68 70 71 68 66 60 50 41 31 26 26 27 30 36 36 33 23 30 24 17 12 13 6 20 14 19 25 20 29 31 38 15 21 37 15 18 39 39 34 35
51 53 57 59 61 65 68 70 74 75 73 68 62 54 44 36 26 25 27 30 33 34 30 23 27 26 13 10 10 15 21 23 20 22 27 25 29 34 25 26 17 36 38 38 47 46 46
52 52 56 58 61 65 68 71 76 79 80 73 65 56 46 36 24 25 28 30 29 29 26 32 24 21 16 20 3 12 19 24 18 15 18 21 32 34 39 17 30 51 26 30 24 27 23
52 53 56 59 63 66 68 72 75 79 83 79 70 58 45 35 21 24 30 31 26 28 20 27 17 12 15 14 12 18 24 23 31 20 24 21 19 29 28 36 36 26 17 17 18 27 50
52 54 57 61 64 67 69 70 74 79 84 86 75 58 41 31 25 28 31 32 29 28 15 21 9 13 17 15 25 16 9 27 32 35 21 22 22 23 32 14 14 14 23 31 39 38 35
53 54 58 62 66 70 72 72 73 79 85 88 80 54 37 28 28 30 27 32 36 9 5 21 1 15 17 16 26 22 29 38 48 33 35 25 34 10 14 10 16 22 22 27 31 31 27
55 56 59 63 66 70 73 73 75 80 84 88 84 53 35 27 22 25 25 27 33 13 17 24 38 36 46 28 22 26 35 37 38 15 14 36 16 21 35 33 37 31 33 39 36 31 28
55 57 60 62 65 68 70 74 74 79 83 84 81 52 33 26 18 21 24 21 30 30 28 33 37 39 29 27 30 37 42 19 15 18 19 21 27 35 40 41 45 40 41 46 41 35 35
53 56 59 62 66 68 70 71 76 77 80 81 81 51 30 31 14 22 23 31 30 27 10 29 24 16 14 18 28 48 13 19 17 17 24 28 33 40 42 29 35 36 33 33 40 36 33
55 58 61 64 67 70 73 74 75 78 79 79 83 53 28 23 13 23 28 33 37 22 4 12 16 8 15 33 32 11 27 30 9 21 22 23 23 38 41 42 37 42 29 34 35 20 26
57 60 63 66 68 71 74 76 79 81 84 82 79 54 23 23 19 26 38 34 31 9 7 12 34 14 63 38 47 21 31 27 19 35 25 33 29 31 36 42 40 52 36 35 40 20 26
56 59 62 65 68 70 73 75 79 79 80 85 72 49 22 20 17 40 42 30 19 4 6 8 31 34 43 47 33 51 41 56 46 26 30 32 39 33 32 33 33 33 26 28 23 14 26
58 61 64 66 68 72 75 77 79 81 82 84 79 36 9 28 22 37 42 29 4 3 27 23 40 39 37 27 33 36 36 33 11 16 19 35 21 20 18 17 16 24 8 7 8 15 23
58 62 65 66 68 70 74 77 79 81 83 85 76 17 7 21 33 29 27 9 5 28 25 30 32 38 22 41 20 26 32 31 5 9 9 13 18 18 22 24 23 29 14 7 12 7 6
55 58 62 66 68 69 71 76 82 85 83 85 54 13 9 22 25 26 25 6 5 19 27 29 27 24 24 39 28 25 24 14 13 13 6 12 12 44 52 42 20 4 11 13 9 15 8
54 56 60 63 66 67 67 73 79 84 82 79 49 25 3 21 39 26 5 9 21 29 20 21 19 23 38 40 33 32 15 12 22 8 13 9 28 27 37 28 27 25 10 7 7 7 11
55 58 61 61 62 63 63 71 76 81 80 77 37 20 14 44 29 19 2 13 28 50 22 10 20 27 28 25 34 26 16 27 16 8 6 14 14 21 17 11 13 4 3 6 7 9 6
53 58 60 61 63 64 63 68 74 78 79 67 30 11 34 33 14 16 10 21 45 30 37 13 12 13 18 30 28 18 22 26 36 15 5 3 8 13 29 53 39 35 17 24 9 9 7
56 56 56 60 63 67 65 66 69 68 70 72 48 14 36 37 8 9 15 23 49 26 12 16 12 16 21 20 25 24 34 33 15 8 6 10 8 13 13 7 8 7 5 12 22 17 33
56 59 60 60 61 62 63 63 65 61 56 56 17 7 20 28 47 22 23 25 34 37 31 32 27 26 21 31 26 32 29 26 27 9 30 26 9 15 22 34 31 45 45 40 32 13 13
61 63 66 65 61 61 62 57 56 58 46 34 13 13 22 10 22 34 27 27 38 31 29 39 10 23 32 35 22 21 45 44 50 11 9 4 12 21 33 45 45 50 55 48 35 24 15
62 64 63 59 58 58 56 53 53 50 50 22 16 16 19 42 36 27 24 23 35 43 29 18 26 34 32 16 21 48 49 43 42 11 7 9 9 22 37 40 37 30 26 21 10 11 18
62 61 61 59 57 55 52 50 46 36 38 16 29 28 19 19 22 18 14 34 44 36 12 46 45 25 15 28 48 63 74 37 3 15 13 5 7 12 16 26 43 4 6 31 29 22 15
58 57 56 55 53 50 47 43 41 29 31 29 26 25 11 11 13 20 43 45 40 40 39 47 53 21 30 55 66 63 46 16 15 10 11 7 8 10 17 29 6 3 3 26 27 36 26
50 51 53 50 48 44 44 40 35 35 30 35 30 16 8 8 24 41 45 42 52 52 34 48 44 50 67 41 19 18 13 10 10 5 14 10 8 9 10 16 19 5 18 28 30 38 12
48 47 47 49 47 40 40 39 37 32 31 36 34 23 19 10 11 49 35 47 24 23 20 38 53 53 38 6 9 9 6 12 11 13 9 26 17 5 8 12 9 11 35 63 11 12 17
46 46 46 46 49 44 37 39 39 36 30 37 36 34 20 16 40 27 27 22 29 30 18 38 30 31 26 7 6 6 7 12 8 12 14 15 7 9 14 10 1 25 37 54 10 15 67
46 45 45 44 44 43 36 36 35 38 36 36 41 38 33 18 60 48 19 44 64 47 10 32 22 12 10 9 5 7 6 7 7 12 7 9 11 7 9 8 8 41 16 12 22 56 59
43 45 44 43 43 43 40 36 37 35 38 36 42 38 30 41 54 79 90 52 51 48 40 12 23 33 6 5 6 5 6 7 10 7 2 5 1 7 4 8 12 47 25 51 58 57 51
Wind_Direction_850mb
43 41 36 31 27 23 19 15 11 9 6 1 356 350 346 339 336 338 342 345 346 346 345 341 346 337 335 319 265 290 335 11 22 3 345 318 314 322 335 337 326 325 309 321 316 311 305
41 36 32 28 24 21 17 13 10 8 5 1 358 352 346 339 328 331 336 342 346 347 350 327 331 331 320 281 324 329 342 4 344 327 317 314 321 317 313 309 304 305 307 304 299 300 300
36 32 28 25 21 18 14 11 9 7 4 1 358 352 347 340 328 331 334 336 339 340 342 344 324 321 297 264 276 317 324 303 297 297 287 297 310 328 326 317 302 318 312 303 302 287 269
31 28 24 21 17 14 10 9 7 7 5 2 357 353 351 348 343 339 337 334 332 331 328 353 5 340 282 335 227 283 272 290 309 285 299 280 295 293 293 290 291 291 285 280 267 258 260
28 23 20 16 13 10 9 7 6 5 4 2 358 354 357 358 353 347 345 342 334 327 310 331 330 333 281 300 252 285 279 284 292 289 277 283 255 271 285 282 294 270 261 259 266 252 242
23 19 15 13 11 8 6 5 4 3 3 1 359 356 359 3 3 6 2 353 344 345 5 321 350 296 278 269 294 272 289 296 281 274 296 287 264 220 251 232 250 258 274 285 290 303 309
20 16 12 10 8 7 6 4 2 0 359 360 359 356 356 1 14 13 15 7 0 358 321 266 267 249 284 304 310 290 280 277 292 304 277 265 260 228 244 245 255 276 287 282 284 286 296
18 15 12 9 6 5 4 3 0 359 358 357 358 355 354 354 355 345 349 6 359 321 302 294 267 257 269 289 277 280 287 259 297 270 266 269 250 245 254 253 241 242 250 265 272 280 279
13 10 8 6 4 2 1 0 359 357 357 356 357 353 353 350 355 352 341 348 333 328 296 294 228 236 243 268 269 277 267 262 254 298 298 272 281 292 295 300 297 286 267 253 266 272 264
8 6 4 2 0 359 359 358 356 355 355 355 355 350 348 8 17 350 0 339 321 309 284 250 192 171 297 299 273 346 343 308 253 277 276 273 287 290 297 292 293 282 289 301 306 308 271
5 3 0 359 358 358 356 355 355 355 353 351 353 350 349 350 346 2 341 329 333 15 22 35 39 19 346 328 308 336 357 352 330 317 296 277 277 277 283 286 284 281 287 285 287 262 285
359 358 357 356 356 356 354 354 354 355 353 350 354 347 6 355 342 357 332 320 307 355 286 52 13 354 334 323 343 3 11 3 337 311 295 283 297 287 274 299 299 310 326 318 314 273 258
355 355 355 355 355 354 353 353 352 353 351 348 348 342 353 7 347 352 330 344 7 265 355 358 351 346 312 359 353 9 359 350 11 336 351 309 276 273 53 20 333 49 18 282 246 220 254
352 352 353 353 354 354 353 352 352 353 351 348 350 359 359 5 4 349 350 356 278 351 346 356 344 320 356 347 356 353 344 330 349 10 311 341 329 2 341 317 300 284 161 271 295 245 294
348 349 349 349 350 353 354 353 351 353 353 348 357 13 28 356 350 334 356 331 359 354 358 348 334 335 331 329 334 348 341 308 355 51 349 303 258 321 304 294 279 223 194 163 251 235 254
343 344 345 346 348 351 355 354 351 350 355 352 352 357 27 346 340 338 23 259 353 350 351 349 323 322 328 325 333 349 329 298 325 119 113 254 289 278 288 307 280 239 158 271 204 241 242
339 340 342 343 346 348 352 355 352 349 354 354 353 336 3 346 356 327 31 353 337 321 345 300 314 316 314 320 318 311 291 301 273 322 288 281 219 282 303 231 233 287 347 183 241 230 271
333 334 336 339 343 343 345 350 354 350 352 3 6 333 15 356 15 357 359 343 319 316 314 316 330 306 301 308 306 314 290 279 268 242 248 248 289 282 282 274 270 251 229 208 236 235 232
326 330 337 340 340 340 343 345 349 354 351 350 338 286 335 24 25 332 326 330 310 311 341 341 318 311 308 301 305 299 292 310 318 122 186 180 233 296 299 306 32 38 321 254 267 260 242
322 324 327 328 332 332 335 336 341 350 351 344 336 314 349 339 354 338 328 312 312 347 335 336 320 308 313 303 290 293 323 317 323 195 215 166 231 223 260 278 297 289 279 271 264 250 268
317 319 319 320 322 326 330 330 335 343 358 352 347 3 342 312 325 311 317 305 330 329 336 337 320 323 305 307 314 326 319 315 318 16 146 167 252 247 253 261 269 270 272 286 273 288 250
315 317 319 321 322 323 326 330 333 345 352 357 7 346 322 294 304 325 317 339 326 331 330 318 317 306 299 316 335 322 311 309 302 115 137 239 275 297 290 274 268 276 35 352 307 278 278
314 316 317 320 321 322 322 323 325 338 344 354 325 319 325 297 319 327 315 324 313 328 319 316 310 315 341 335 318 304 295 297 166 154 187 232 284 304 279 323 307 153 42 350 292 270 269
314 317 319 321 322 323 324 325 320 324 325 318 315 312 279 280 311 297 309 305 323 328 311 328 319 345 331 327 323 308 302 139 137 170 158 200 296 281 290 305 282 130 184 318 285 287 288
318 321 323 325 324 326 328 327 323 312 310 307 310 297 258 269 292 295 330 316 313 309 314 305 330 326 330 324 317 315 319 335 324 113 152 232 282 289 297 311 273 67 342 322 326 304 251
319 321 323 326 326 327 327 330 331 315 305 306 304 283 246 271 246 313 305 308 305 313 303 317 314 324 346 300 320 311 296 320 324 330 160 344 310 296 295 302 294 349 328 324 311 265 2
315 318 320 323 323 328 327 326 329 325 306 300 294 299 255 253 282 296 298 287 298 315 294 304 343 326 350 343 312 329 289 339 327 326 332 328 358 285 311 279 111 352 339 332 3 313 318
316 318 320 321 319 321 324 325 332 330 314 301 291 290 265 248 287 293 270 291 292 292 261 304 336 358 346 9 333 345 316 294 313 316 341 316 332 336 325 288 323 359 342 8 294 302 307
317 318 322 323 322 315 314 311 313 316 319 294 289 290 281 248 270 295 292 288 282 283 259 262 276 312 322 2 1 311 283 277 330 299 286 337 265 298 260 279 348 345 298 319 325 313 319